[[{"header":{"parameterUnit":"m.s-1","parameterCategory":1,"la1":30.2991,"la2":30.254,"lo1":-89.0895,"lo2":-89.0444,"dy":0.0017,"dx":0.0017,"nx":28,"ny":28,"refTime":"2024-08-09T03:00:00:Z","depth":0,"parameterNumber":2,"parameterNumberName":"U-component_of_WINDS"},"data":[0,0,0,0,0,0,0,0,0,0,0,0,0,0,0,0,0,0,0,0,0,0,0,0,0,0,0,0,0,0,0,0,0,0,0,0,0,0,0,0,0,0,0,0,0,0,0,0,0,0,0,0,0,0,0,0,0,0,0.3637,0.3636,0,0.362,0.362,0.362,0.3677,0.3679,0.3681,0.3683,0.3662,0.3659,0.3657,0,0,0,0,0,0,0,0,0,0,0,0,0,0.3714,0.3712,0.3637,0.3636,0.3636,0.362,0.362,0.362,0.3677,0.3679,0.3681,0.3683,0.3662,0.366,0.3657,0,0,0,0,0,0,0,0,0,0,0,0,0,0.3687,0.3712,0.3637,0.3663,0.3665,0.362,0.362,0.362,0.3677,0.3679,0.3682,0.3684,0.3663,0.366,0.3657,0.3584,0,0,0.3647,0.3645,0,0,0,0,0,0,0,0,0.3688,0.3684,0.3659,0.3661,0.3664,0.3654,0.364,0.3608,0.3676,0.3672,0.3683,0.3686,0.3657,0.3654,0.3645,0.3583,0.3582,0.3646,0.3644,0.3643,0.3642,0,0,0,0,0,0,0,0.369,0.3685,0.363,0.3659,0.3661,0.3674,0.3674,0.3634,0.365,0.3673,0.3677,0.3674,0.3658,0.3648,0.3645,0.3582,0.3647,0.3644,0.3642,0.364,0.3459,0.3456,0,0,0,0,0,0,0.3689,0.3686,0.3631,0.363,0.3683,0.3671,0.367,0.3654,0.365,0.3652,0.3672,0.3677,0.3652,0.3649,0.3644,0.3558,0.3643,0.364,0.3638,0.3461,0.3458,0.3455,0,0,0,0,0,0,0.3691,0.3684,0.3631,0.3659,0.3653,0.3667,0.3649,0.3652,0.3642,0.365,0.3653,0.3659,0.3654,0.3649,0.3599,0.3558,0.3639,0.3636,0.3465,0.346,0.3456,0.3384,0,0,0,0,0,0,0.3693,0.3684,0.3657,0.3658,0.3652,0.3586,0.3646,0.365,0.3637,0.3643,0.3638,0.364,0.3656,0.3603,0.3595,0.3555,0.3633,0.3468,0.3463,0.3458,0.339,0.3378,0.3367,0,0,0,0,0,0.3695,0.3637,0.3656,0.3648,0.3619,0.3584,0.358,0.3601,0.3634,0.3606,0.3611,0.364,0.3564,0.3598,0.3589,0.3547,0.3471,0.3464,0.3458,0.3395,0.338,0.3368,0,0,0,0,0,0,0.3629,0.3637,0.3658,0.3599,0.359,0.3594,0.356,0.3585,0.3566,0.3572,0.3597,0.3596,0.354,0.3539,0.3576,0.3476,0.3523,0.3515,0.3478,0.3464,0.3453,0.3452,0.363,0,0,0,0,0,0.3608,0.358,0.3589,0.3536,0.3531,0.3546,0.3531,0.3548,0.354,0.3536,0.3538,0.3527,0.3501,0.3483,0.346,0.3392,0.339,0.3358,0.3347,0.3338,0.3329,0.3291,0.3276,0.3434,0.3434,0.3434,0,0,0.3563,0.3565,0.3545,0.3522,0.3518,0.3487,0.3542,0.3508,0.3484,0.3531,0.3483,0.3484,0.3474,0.3414,0.3388,0.3411,0.3285,0.3329,0.3322,0.3318,0.3282,0.3267,0.3254,0.3429,0.343,0.3431,0,0,0.3465,0.3465,0.3419,0.3414,0.3407,0.3418,0.3407,0.3407,0.341,0.3363,0.3396,0.3369,0.3324,0.3315,0.3304,0.3204,0.3229,0.3196,0.3135,0.3098,0.3085,0.3074,0.3036,0.3022,0.3188,0.3188,0.3188,0,0.341,0.3366,0.3392,0.3355,0.3343,0.3386,0.3339,0.3333,0.3317,0.3307,0.3335,0.3279,0.3276,0.3213,0.3189,0.318,0.3166,0.3195,0.3085,0.3075,0.3065,0.3028,0.3014,0.3184,0.3184,0.3185,0.3185,0,0.3297,0.3266,0.323,0.3215,0.32,0.3158,0.3177,0.3158,0.3177,0.3184,0.3135,0.3133,0.3109,0.3096,0.3114,0.3036,0.305,0.3081,0.3128,0.3045,0.3011,0.2997,0.3178,0.3179,0.3181,0.3182,0,0,0.3153,0.3156,0.3142,0.3135,0.3131,0.3107,0.3067,0.3045,0.3027,0.3016,0.2981,0.2943,0.2971,0.2959,0.2977,0.2944,0.2862,0.2979,0.2979,0.2955,0.2773,0.2747,0.2731,0.2881,0.2878,0.2876,0.2773,0,0.3055,0.2987,0.301,0.294,0.2911,0.2952,0.2917,0.2909,0.2916,0.2891,0.2898,0.2869,0.2911,0.2903,0.2874,0.2878,0.2825,0.2887,0.2846,0.2844,0.2843,0.2713,0.2686,0.2588,0.276,0.2758,0.2756,0,0.293,0.2915,0.2842,0.2843,0.2831,0.2799,0.278,0.2757,0.275,0.2757,0.2744,0.2768,0.2727,0.2778,0.272,0.2762,0.2747,0.2747,0.2743,0.2737,0.2792,0.27,0.2558,0.2542,0.2736,0.2738,0.2739,0,0.2828,0.279,0.2741,0.2735,0.2736,0.2712,0.271,0.2706,0.2691,0.2675,0.2665,0.2644,0.2631,0.2614,0.2631,0.2667,0.2571,0.2623,0.2573,0.2572,0.2547,0.2548,0.2397,0.2544,0.2544,0.2544,0.2544,0,0.2714,0.2667,0.2696,0.2665,0.2614,0.2641,0.2589,0.2592,0.2588,0.2558,0.2593,0.2564,0.259,0.2563,0.2577,0.2526,0.2521,0.2523,0.2527,0.2518,0.2517,0.2505,0.2511,0.254,0.2541,0.2542,0.2543,0,0.259,0.2608,0.2557,0.2562,0.2563,0.2524,0.2528,0.2499,0.2509,0.247,0.2463,0.2478,0.2447,0.2464,0.2433,0.2442,0.2375,0.239,0.2377,0.238,0.2327,0.233,0.216,0.2138,0.2303,0.2301,0.23,0,0.2513,0.2478,0.248,0.2463,0.246,0.2432,0.2418,0.2444,0.2426,0.2416,0.2388,0.2361,0.2341,0.229,0.2297,0.2273,0.2285,0.2227,0.2281,0.2273,0.228,0.228,0.2276,0.2215,0.2213,0.2211,0.221,0,0.2375,0.2386,0.2364,0.2344,0.2326,0.2312,0.2301,0.2285,0.2311,0.229,0.226,0.2244,0.2213,0.2185,0.2164,0.2162,0.2189,0.2194,0.218,0.2169,0.2162,0.2161,0.2343,0.2196,0.2198,0.2199,0.22,0.22,0.227,0.224,0.2237,0.2211,0.2206,0.2194,0.2167,0.2175,0.215,0.2127,0.2145,0.2108,0.2102,0.2078,0.2072,0.2043,0.2066,0.2047,0.2042,0.2035,0.2027,0.217,0.204,0.204,0.2041,0.2041,0.2041,0,0.213,0.213,0.2107,0.209,0.2069,0.21,0.2089,0.2069,0.2037,0.203,0.201,0.1975,0.1948,0.1954,0.1929,0.1905,0.1916,0.1897,0.1897,0.1895,0.2009,0.2022,0.1888,0.1888,0.1888,0.1888,0.1888,0.1888,0.2054,0.2005,0.2015,0.1963,0.1964,0.1929,0.192,0.191,0.1904,0.1863,0.1842,0.1847,0.1844,0.182,0.1796,0.1799,0.1786,0.1761,0.1768,0.1873,0.1888,0.1902,0.1914,0.1759,0.1759,0.1656,0.1655,0.1654]},{"header":{"parameterUnit":"m.s-1","parameterCategory":1,"la1":30.2991,"la2":30.254,"lo1":-89.0895,"lo2":-89.0444,"dy":0.0017,"dx":0.0017,"nx":28,"ny":28,"refTime":"2024-08-09T03:00:00:Z","depth":0,"parameterNumber":3,"parameterNumberName":"V-component_of_WINDS"},"data":[0,0,0,0,0,0,0,0,0,0,0,0,0,0,0,0,0,0,0,0,0,0,0,0,0,0,0,0,0,0,0,0,0,0,0,0,0,0,0,0,0,0,0,0,0,0,0,0,0,0,0,0,0,0,0,0,0,0,-3.732,-3.7321,0,-3.7404,-3.7405,-3.7406,-3.7348,-3.7345,-3.7342,-3.734,-3.7424,-3.7429,-3.7433,0,0,0,0,0,0,0,0,0,0,0,0,0,-3.7107,-3.7111,-3.732,-3.7321,-3.7322,-3.7404,-3.7405,-3.7406,-3.7348,-3.7345,-3.7342,-3.7339,-3.7422,-3.7428,-3.7434,0,0,0,0,0,0,0,0,0,0,0,0,0,-3.7196,-3.7112,-3.732,-3.7303,-3.7302,-3.7404,-3.7405,-3.7406,-3.7349,-3.7345,-3.7341,-3.7337,-3.7421,-3.7427,-3.7434,-3.7556,0,0,-3.7456,-3.7459,0,0,0,0,0,0,0,0,-3.7191,-3.7204,-3.7304,-3.7304,-3.7304,-3.7361,-3.7361,-3.7457,-3.735,-3.7331,-3.734,-3.7335,-3.7406,-3.7414,-3.7438,-3.756,-3.7564,-3.7456,-3.7461,-3.7464,-3.7466,0,0,0,0,0,0,0,-3.7185,-3.72,-3.7353,-3.7306,-3.7306,-3.729,-3.7299,-3.7379,-3.739,-3.7332,-3.7328,-3.7339,-3.7405,-3.7432,-3.744,-3.7565,-3.7456,-3.7462,-3.7467,-3.747,-3.7789,-3.7794,0,0,0,0,0,0,-3.718,-3.7195,-3.735,-3.7356,-3.7237,-3.7297,-3.7307,-3.7347,-3.7389,-3.7391,-3.7342,-3.7336,-3.7422,-3.7432,-3.7443,-3.7587,-3.7464,-3.747,-3.7474,-3.7785,-3.779,-3.7795,0,0,0,0,0,0,-3.7176,-3.7195,-3.7347,-3.7274,-3.7293,-3.7305,-3.7351,-3.7351,-3.7377,-3.7396,-3.7398,-3.7368,-3.7419,-3.7433,-3.7528,-3.759,-3.7473,-3.748,-3.778,-3.7787,-3.7793,-3.7878,0,0,0,0,0,0,-3.717,-3.7194,-3.7241,-3.7276,-3.7297,-3.7432,-3.7355,-3.7355,-3.739,-3.7382,-3.742,-3.7423,-3.7417,-3.7518,-3.7535,-3.7597,-3.7485,-3.7775,-3.7783,-3.7791,-3.787,-3.7887,-3.7901,0,0,0,0,0,-3.7163,-3.7261,-3.7244,-3.7263,-3.7356,-3.7436,-3.7448,-3.744,-3.7395,-3.7442,-3.7454,-3.7422,-3.758,-3.7528,-3.7547,-3.7612,-3.7771,-3.7781,-3.779,-3.7863,-3.7884,-3.7901,0,0,0,0,0,0,-3.7233,-3.7266,-3.7246,-3.7359,-3.7395,-3.7426,-3.7485,-3.7462,-3.7511,-3.7502,-3.7489,-3.7498,-3.7598,-3.7614,-3.7556,-3.7732,-3.7668,-3.7682,-3.7717,-3.7737,-3.7752,-3.7746,-3.7491,0,0,0,0,0,-3.7261,-3.7324,-3.7349,-3.7447,-3.7466,-3.7473,-3.7507,-3.7498,-3.7534,-3.7549,-3.7568,-3.7604,-3.7662,-3.77,-3.7755,-3.7872,-3.7879,-3.7926,-3.7941,-3.7954,-3.7966,-3.8029,-3.8049,-3.7827,-3.7827,-3.7827,0,0,-3.7321,-3.7347,-3.7387,-3.7461,-3.7488,-3.7553,-3.7486,-3.7557,-3.7605,-3.756,-3.7651,-3.7666,-3.7706,-3.7813,-3.786,-3.7829,-3.8029,-3.7967,-3.7977,-3.7982,-3.8041,-3.8062,-3.8081,-3.7833,-3.7832,-3.7831,0,0,-3.7463,-3.7489,-3.7573,-3.7601,-3.7643,-3.7646,-3.7666,-3.7701,-3.7709,-3.7801,-3.7768,-3.7824,-3.7924,-3.7953,-3.7981,-3.8133,-3.8105,-3.8151,-3.8232,-3.8293,-3.8311,-3.8326,-3.838,-3.8399,-3.8163,-3.8163,-3.8163,0,-3.7532,-3.7629,-3.7619,-3.7693,-3.7725,-3.7688,-3.7772,-3.78,-3.7857,-3.788,-3.7844,-3.7968,-3.7992,-3.8105,-3.8142,-3.8166,-3.8188,-3.8147,-3.8309,-3.8325,-3.8339,-3.839,-3.841,-3.8168,-3.8168,-3.8167,-3.8167,0,-3.7711,-3.7779,-3.7841,-3.7897,-3.7937,-3.8016,-3.8017,-3.8058,-3.8045,-3.8052,-3.8145,-3.8173,-3.8231,-3.8257,-3.8245,-3.8368,-3.8347,-3.8311,-3.8247,-3.8366,-3.8413,-3.8433,-3.8176,-3.8174,-3.8173,-3.8171,0,0,-3.79,-3.7949,-3.7972,-3.7997,-3.804,-3.8091,-3.8167,-3.8225,-3.8261,-3.8301,-3.8364,-3.845,-3.8416,-3.8447,-3.8438,-3.8492,-3.8609,-3.8448,-3.8449,-3.8477,-3.8745,-3.8772,-3.8795,-3.8591,-3.8595,-3.8597,-3.8742,0,-3.8043,-3.8177,-3.817,-3.8295,-3.8357,-3.8322,-3.8388,-3.8421,-3.8429,-3.8482,-3.8491,-3.8551,-3.8503,-3.8521,-3.8573,-3.8584,-3.8663,-3.8574,-3.8648,-3.8651,-3.864,-3.882,-3.8849,-3.8984,-3.876,-3.8764,-3.8766,0,-3.8229,-3.8276,-3.8408,-3.8441,-3.8466,-3.8526,-3.8578,-3.8629,-3.8665,-3.8667,-3.8703,-3.8684,-3.876,-3.8695,-3.8798,-3.8738,-3.8768,-3.8778,-3.8783,-3.8789,-3.8716,-3.8831,-3.9027,-3.9047,-3.8795,-3.8793,-3.8791,0,-3.8353,-3.8449,-3.854,-3.8562,-3.8603,-3.8646,-3.8664,-3.8697,-3.8732,-3.8777,-3.8799,-3.8852,-3.8882,-3.8923,-3.8918,-3.8871,-3.9024,-3.8958,-3.9027,-3.9027,-3.9061,-3.9059,-3.9264,-3.9081,-3.908,-3.908,-3.908,0,-3.8514,-3.8596,-3.8596,-3.8652,-3.8742,-3.8732,-3.8821,-3.8835,-3.8864,-3.8921,-3.8894,-3.8948,-3.8939,-3.8993,-3.899,-3.9076,-3.909,-3.9093,-3.9091,-3.9096,-3.9095,-3.9115,-3.9105,-3.9085,-3.9084,-3.9083,-3.9082,0,-3.8668,-3.8671,-3.8768,-3.8798,-3.8808,-3.8873,-3.8898,-3.8951,-3.8957,-3.9029,-3.9046,-3.9055,-3.9117,-3.9117,-3.9187,-3.9185,-3.929,-3.9278,-3.9279,-3.9276,-3.9345,-3.9338,-3.957,-3.9599,-3.9398,-3.9399,-3.9401,0,-3.877,-3.8832,-3.8869,-3.8906,-3.8928,-3.8987,-3.9022,-3.9015,-3.9053,-3.9098,-3.9145,-3.9204,-3.9251,-3.9352,-3.9364,-3.9417,-3.9406,-3.9483,-3.9414,-3.9416,-3.9406,-3.9403,-3.9408,-3.9497,-3.9499,-3.9501,-3.9503,0,-3.8952,-3.895,-3.9003,-3.9056,-3.91,-3.9141,-3.9179,-3.9211,-3.9207,-3.9251,-3.9314,-3.9351,-3.9423,-3.9482,-3.9533,-3.9551,-3.9526,-3.9524,-3.9543,-3.9548,-3.9545,-3.9547,-3.9315,-3.9519,-3.9517,-3.9516,-3.9515,-3.9515,-3.9082,-3.9136,-3.917,-3.9229,-3.9257,-3.9293,-3.9344,-3.9356,-3.9409,-3.9467,-3.9459,-3.953,-3.9563,-3.9629,-3.9652,-3.9706,-3.9679,-3.9706,-3.9713,-3.972,-3.9727,-3.9537,-3.9715,-3.9715,-3.9715,-3.9714,-3.9714,0,-3.9262,-3.9282,-3.9337,-3.9391,-3.9438,-3.9411,-3.9451,-3.9492,-3.9554,-3.9588,-3.9634,-3.9707,-3.9763,-3.978,-3.9835,-3.9875,-3.9865,-3.9889,-3.9886,-3.989,-3.9749,-3.9727,-3.9896,-3.9896,-3.9896,-3.9896,-3.9896,-3.9896,-3.9361,-3.9449,-3.9452,-3.9553,-3.9572,-3.9641,-3.9667,-3.97,-3.9726,-3.9808,-3.9855,-3.9866,-3.9892,-3.9949,-3.9999,-4.0002,-4.0023,-4.0053,-4.0051,-3.9919,-3.99,-3.9883,-3.9862,-4.0058,-4.0058,-4.0188,-4.019,-4.0191]}]]